Flag for U.S.A. Weather past 2 weeks in Paterson, New Jersey, U.S.A.

Now
73 °F

Clear.


Feels Like: 73 °F
Forecast: 72 / 90 °F
Wind: No wind

Location: Essex County Airport

Current Time: Aug 31, 2015 at 7:09:24 AM

Latest Report: Aug 31, 2015 at 5:53 AM


Visibility: 10 mi

Pressure: 30.03 "Hg

Humidity: 79%

Dew point: 66 °F

Location of PatersonLocation

Historic Weather in Paterson — Graph

°F

Paterson temperature yesterday

Maximum temperature yesterday: 89 °F (at 2:53 PM)
Minimum temperature yesterday: 63 °F (at 6:53 AM)
Average temperature yesterday: 77 °F

Past Weeks' High & Low Weather Summary

 TemperatureHumidityPressure
High95 °F (Aug 17, 4:53 PM)97% (Aug 24, 7:53 AM)30.24 "Hg (Aug 24, 7:53 AM)
Low56 °F (Aug 28, 4:53 AM)31% (Aug 17, 2:53 PM)29.82 "Hg (Aug 25, 3:53 PM)
Average76 °F62%30.04 "Hg
* Reported Aug 16 5:53 AM — Aug 31 5:53 AM, Paterson, Weather by CustomWeather, © 2015

Note: Actual official high and low records may vary slightly from our data, if they occured in-between our weather recording intervals... More about our weather records

Advertising

Paterson weather history for previous 24 hours

 ConditionsComfort  
Time TempWeatherWind HumidityBarometerVisibility
5:53 AM
Mon, Aug 31
73 °FClear.No wind79%30.03 "Hg10 mi
4:53 AM72 °FClear.No wind78%30.03 "Hg10 mi
3:53 AM74 °FClear.No wind74%30.03 "Hg10 mi
2:53 AM75 °FClear.3 mph71%30.03 "Hg10 mi
1:53 AM76 °FPassing clouds.No wind69%30.04 "Hg10 mi
12:53 AM77 °FPassing clouds.No wind64%30.05 "Hg10 mi
11:53 PM
Sun, Aug 30
78 °FClear.3 mph62%30.05 "Hg10 mi
10:53 PM79 °FPassing clouds.No wind62%30.05 "Hg10 mi
9:53 PM80 °FPassing clouds.3 mph60%30.05 "Hg10 mi
8:53 PM80 °FPassing clouds.No wind58%30.04 "Hg10 mi
7:53 PM83 °FSunny.No wind53%30.03 "Hg10 mi
6:53 PM85 °FSunny.3 mph48%30.01 "Hg10 mi
5:53 PM87 °FPartly sunny.3 mph45%30.02 "Hg10 mi
4:53 PM88 °FSunny.7 mph43%30.02 "Hg10 mi
3:53 PM88 °FSunny.8 mph42%30.03 "Hg10 mi
2:53 PM89 °FPassing clouds.7 mph42%30.05 "Hg10 mi
1:53 PM86 °FScattered clouds.6 mph48%30.07 "Hg10 mi
12:53 PM85 °FSunny.5 mph51%30.09 "Hg10 mi
11:53 AM82 °FPassing clouds.6 mph55%30.11 "Hg10 mi
10:53 AM79 °FSunny.6 mph62%30.12 "Hg10 mi
9:53 AM75 °FSunny.No wind66%30.12 "Hg10 mi
8:53 AM71 °FPassing clouds.5 mph73%30.12 "Hg10 mi
7:53 AM68 °FSunny.No wind78%30.12 "Hg10 mi
Weather by CustomWeather, © 2015

See weather overviewHow to use our weather pages